This is the latest recevied weather packets stored in our database for station/object K7FED. If no packets are shown the sender has not sent any weather packets the latest 10 day(s).
| Time | Temp. | Humidity | Pressure | Rain* | Wind** | Luminosity | Snow |
|---|---|---|---|---|---|---|---|
| 1777952308 | 15° C | 76% | 1013.2 hPa | 0 mm | - | 0 W/m² | - |
| 1777952007 | 15° C | 77% | 1013.1 hPa | 0 mm | - | 0 W/m² | - |
| 1777951704 | 15° C | 79% | 1013 hPa | 0 mm | - | 0 W/m² | - |
| 1777951403 | 15.56° C | 85% | 1013 hPa | 0 mm | - | 0 W/m² | - |
| 1777951104 | 15.56° C | 84% | 1013 hPa | 0 mm | - | 0 W/m² | - |
| 1777950804 | 15.56° C | 84% | 1012.9 hPa | 0 mm | - | 0 W/m² | - |
| 1777950504 | 15.56° C | 83% | 1012.8 hPa | 0 mm | - | 0 W/m² | - |
| 1777950204 | 15.56° C | 83% | 1012.7 hPa | 0 mm | - | 0 W/m² | - |
| 1777949900 | 15.56° C | 83% | 1012.7 hPa | 0 mm | - | 0 W/m² | - |
| 1777949601 | 15.56° C | 82% | 1012.8 hPa | 0 mm | - | 0 W/m² | - |
| 1777949301 | 15.56° C | 82% | 1012.8 hPa | 0 mm | - | 2 W/m² | - |
| 1777949001 | 15.56° C | 83% | 1012.8 hPa | 0 mm | - | 2 W/m² | - |
| 1777948702 | 15.56° C | 82% | 1012.8 hPa | 0 mm | - | 3 W/m² | - |
| 1777948401 | 15.56° C | 82% | 1012.8 hPa | 0 mm | - | 4 W/m² | - |
| 1777948101 | 15.56° C | 83% | 1012.9 hPa | 0 mm | - | 5 W/m² | - |
| 1777947801 | 15.56° C | 83% | 1012.9 hPa | 0 mm | - | 5 W/m² | - |
| 1777947501 | 15.56° C | 83% | 1012.9 hPa | 0 mm | - | 6 W/m² | - |
| 1777947201 | 15.56° C | 84% | 1013 hPa | 0 mm | - | 7 W/m² | - |
| 1777946902 | 15.56° C | 83% | 1013 hPa | 0 mm | - | 7 W/m² | - |
| 1777946600 | 15.56° C | 83% | 1012.9 hPa | 0 mm | - | 10 W/m² | - |
| 1777946299 | 15.56° C | 83% | 1012.9 hPa | 0 mm | - | 10 W/m² | - |
| 1777945999 | 15.56° C | 84% | 1013 hPa | 0 mm | - | 8 W/m² | - |
| 1777945696 | 15.56° C | 82% | 1013 hPa | 0 mm | - | 7 W/m² | - |
| 1777945396 | 15.56° C | 82% | 1012.9 hPa | 0 mm | - | 7 W/m² | - |
| 1777945093 | 15.56° C | 82% | 1013 hPa | 0 mm | - | 6 W/m² | - |
* Rain latest hour (hover to see other rain measurements)
** Current wind speed in m/s (hover to see current wind gust speed)